Weather History for KAMN - January, 2013

Change the Weather History Date:

Thursday, January 3, 2013

  Actual Average Record
Temperature  
Mean Temperature 24 °F -  
Max Temperature 29 °F 30 °F - (-1)
Min Temperature 19 °F 15 °F - (-1)
Degree Days  
Heating Degree Days 41    
Moisture  
Dew Point 20 °F    
Average Humidity 82    
Maximum Humidity 93    
Minimum Humidity 76    
Precipitation  
Precipitation 0.00 in - - ()
Sea Level Pressure  
Sea Level Pressure 30.07 in    
Wind  
Wind Speed 10 mph (SW)    
Max Wind Speed 17 mph    
Max Gust Speed 22 mph    
Visibility 8 miles    
Events Snow    
Averages and records for this station are not official NWS values.
T = Trace of Precipitation, MM = Missing Value Source: NWS Daily Summary

Daily Weather History Graph

Daily Weather History Graph

Search for Another Location

Airport or City:

Trip Planner

Search our weather history database for the weather conditions in past years. The results will help you decide how hot, cold, wet, or windy it might be!

Date:

Astronomy

Jan. 03, 2013 Rise Set
Actual Time 8:11 AM EST 5:15 PM EST
Civil Twilight 7:38 AM EST 5:48 PM EST
Nautical Twilight 7:03 AM EST 6:24 PM EST
Astronomical Twilight 6:28 AM EST 6:58 PM EST
Moon No Moon Rise 11:11 AM EST (1/3)
Length of Visible Light 10h 09m
Length of Day
9h 04m
Waning Gibbous, 65% of the Moon is Illuminated
Jan 3
Waning Gibbous
Jan 4
Last Quarter
Jan 11
New
Jan 18
First Quarter
Jan 26
Full

Hourly Weather History & Observations

Time (EST) Temp. Windchill Dew Point Humidity Pressure Visibility Wind Dir Wind Speed Gust Speed Precip Events Conditions
12:13 AM 23.9 °F 11.7 °F 18.5 °F 80% 30.11 in 10.0 mi SSW 13.8 mph 19.6 mph N/A   Overcast
12:33 AM 23.0 °F 11.7 °F 16.9 °F 77% 30.10 in 10.0 mi SSW 11.5 mph - N/A   Overcast
12:53 AM 22.3 °F 10.2 °F 16.7 °F 79% 30.10 in 10.0 mi SSW 12.7 mph 17.3 mph N/A   Overcast
1:13 AM 21.6 °F 11.3 °F 16.0 °F 79% 30.11 in 10.0 mi SSW 9.2 mph 16.1 mph N/A   Overcast
1:34 AM 21.2 °F 10.1 °F 15.6 °F 79% 30.10 in 10.0 mi SSW 10.4 mph - N/A   Overcast
1:54 AM 21.2 °F 10.1 °F 15.8 °F 80% 30.09 in 10.0 mi South 10.4 mph - N/A   Overcast
2:14 AM 20.8 °F 9.7 °F 15.8 °F 81% 30.08 in 10.0 mi South 10.4 mph - N/A   Overcast
2:34 AM 20.7 °F 10.2 °F 15.4 °F 80% 30.08 in 10.0 mi South 9.2 mph - N/A   Overcast
2:54 AM 20.3 °F 9.0 °F 14.9 °F 80% 30.08 in 10.0 mi South 10.4 mph - N/A   Overcast
3:14 AM 20.3 °F 9.0 °F 14.9 °F 80% 30.08 in 10.0 mi South 10.4 mph - N/A Snow Light Snow
3:34 AM 19.9 °F 10.1 °F 14.9 °F 81% 30.07 in 10.0 mi South 8.1 mph - N/A Snow Light Snow
3:54 AM 19.8 °F 8.3 °F 14.9 °F 81% 30.06 in 10.0 mi South 10.4 mph - N/A Snow Light Snow
4:15 AM 19.4 °F 7.9 °F 14.7 °F 82% 30.06 in 10.0 mi South 10.4 mph - N/A Snow Light Snow
4:35 AM 19.4 °F 9.5 °F 14.9 °F 83% 30.05 in 10.0 mi South 8.1 mph - N/A   Overcast
4:55 AM 19.8 °F 9.1 °F 14.9 °F 81% 30.04 in 10.0 mi SSW 9.2 mph - N/A Snow Light Snow
5:15 AM 20.1 °F 9.5 °F 15.4 °F 82% 30.04 in 10.0 mi South 9.2 mph - N/A Snow Light Snow
5:35 AM 20.1 °F 10.3 °F 15.8 °F 83% 30.03 in 10.0 mi South 8.1 mph - N/A   Overcast
5:50 AM 20.3 °F 11.5 °F 15.6 °F 82% 30.03 in 10.0 mi South 6.9 mph - N/A   Overcast
6:10 AM 20.3 °F 9.0 °F 16.0 °F 83% 30.03 in 10.0 mi South 10.4 mph - N/A   Overcast
6:30 AM 20.7 °F 9.5 °F 16.2 °F 83% 30.02 in 10.0 mi South 10.4 mph 16.1 mph N/A   Overcast
6:50 AM 20.7 °F 9.5 °F 16.2 °F 83% 30.02 in 10.0 mi SSW 10.4 mph - N/A   Overcast
7:10 AM 20.8 °F 10.4 °F 16.2 °F 82% 30.01 in 10.0 mi SSW 9.2 mph - N/A   Overcast
7:31 AM 21.0 °F 12.4 °F 16.2 °F 81% 30.02 in 10.0 mi SSW 6.9 mph - N/A   Overcast
7:51 AM 21.2 °F 11.7 °F 16.5 °F 82% 30.02 in 10.0 mi SSW 8.1 mph - N/A Snow Light Snow
8:11 AM 21.9 °F 13.4 °F 17.1 °F 82% 30.02 in 10.0 mi SSW 6.9 mph - N/A   Overcast
8:31 AM 22.1 °F 12.8 °F 17.4 °F 82% 30.03 in 10.0 mi SSW 8.1 mph - N/A   Overcast
8:51 AM 22.3 °F 13.0 °F 17.6 °F 82% 30.03 in 10.0 mi SW 8.1 mph - N/A   Overcast
9:11 AM 22.8 °F 13.6 °F 18.3 °F 83% 30.03 in 7.0 mi SW 8.1 mph - N/A   Overcast
9:31 AM 23.0 °F 15.8 °F 19.2 °F 85% 30.04 in 5.0 mi West 5.8 mph - N/A   Overcast
9:51 AM 23.0 °F 17.0 °F 20.1 °F 89% 30.04 in 3.0 mi WSW 4.6 mph - N/A   Overcast
10:12 AM 23.4 °F 16.2 °F 21.0 °F 91% 30.05 in 4.0 mi SW 5.8 mph - N/A   Overcast
10:32 AM 23.7 °F 16.6 °F 21.6 °F 91% 30.05 in 4.0 mi SW 5.8 mph - N/A   Overcast
10:52 AM 23.9 °F 18.0 °F 22.1 °F 93% 30.05 in 3.0 mi SW 4.6 mph - N/A   Overcast
11:32 AM 25.2 °F 17.3 °F 23.2 °F 92% 30.04 in 4.0 mi SW 6.9 mph - N/A   Overcast
11:52 AM 25.7 °F 18.0 °F 23.5 °F 92% 30.04 in 5.0 mi WSW 6.9 mph - N/A   Overcast
12:12 PM 26.2 °F 17.8 °F 23.7 °F 90% 30.03 in 5.0 mi WSW 8.1 mph - N/A   Overcast
12:32 PM 26.6 °F 17.5 °F 23.9 °F 90% 30.03 in 5.0 mi WSW 9.2 mph - N/A   Overcast
12:52 PM 27.3 °F 17.1 °F 23.9 °F 87% 30.03 in 5.0 mi West 11.5 mph - N/A   Overcast
1:13 PM 27.9 °F 19.1 °F 23.9 °F 85% 30.02 in 5.0 mi WSW 9.2 mph - N/A   Overcast
1:33 PM 28.0 °F 17.5 °F 23.9 °F 84% 30.02 in 5.0 mi West 12.7 mph 17.3 mph N/A   Overcast
1:53 PM 28.4 °F 19.1 °F 24.1 °F 84% 30.02 in 5.0 mi West 10.4 mph - N/A   Overcast
2:13 PM 28.4 °F 18.5 °F 23.9 °F 83% 30.02 in 5.0 mi West 11.5 mph 17.3 mph N/A   Overcast
2:33 PM 28.9 °F 19.2 °F 23.9 °F 81% 30.02 in 5.0 mi West 11.5 mph - N/A   Haze
2:53 PM 29.1 °F 18.9 °F 24.1 °F 81% 30.03 in 5.0 mi West 12.7 mph 16.1 mph N/A   Haze
3:13 PM 29.1 °F 19.4 °F 23.5 °F 80% 30.03 in 7.0 mi West 11.5 mph 18.4 mph N/A   Overcast
3:33 PM 28.8 °F 19.0 °F 23.4 °F 80% 30.05 in 7.0 mi West 11.5 mph 18.4 mph N/A   Overcast
3:53 PM 28.6 °F 18.2 °F 23.2 °F 80% 30.05 in 7.0 mi West 12.7 mph 16.1 mph N/A   Overcast
4:14 PM 28.4 °F 17.0 °F 22.8 °F 80% 30.06 in 7.0 mi West 15.0 mph 20.7 mph N/A   Overcast
4:54 PM 28.0 °F 18.1 °F 22.6 °F 80% 30.08 in 7.0 mi West 11.5 mph - N/A   Overcast
5:14 PM 27.9 °F 17.8 °F 22.6 °F 81% 30.09 in 7.0 mi West 11.5 mph - N/A   Overcast
5:34 PM 27.7 °F 18.8 °F 22.8 °F 82% 30.09 in 7.0 mi West 9.2 mph - N/A   Overcast
5:54 PM 27.7 °F 18.2 °F 22.6 °F 81% 30.10 in 10.0 mi West 10.4 mph - N/A   Overcast
6:14 PM 27.9 °F 18.4 °F 22.8 °F 81% 30.11 in 7.0 mi WSW 10.4 mph - N/A   Overcast
6:34 PM 27.7 °F 20.4 °F 23.0 °F 83% 30.11 in 7.0 mi West 6.9 mph - N/A   Overcast
6:54 PM 27.9 °F 19.8 °F 23.0 °F 82% 30.12 in 7.0 mi West 8.1 mph - N/A   Overcast
7:15 PM 28.0 °F 20.8 °F 23.0 °F 81% 30.13 in 7.0 mi West 6.9 mph - N/A   Overcast
7:35 PM 28.0 °F 20.0 °F 23.0 °F 81% 30.13 in 7.0 mi WSW 8.1 mph - N/A   Overcast
7:55 PM 28.2 °F 22.0 °F 23.0 °F 81% 30.12 in 10.0 mi WSW 5.8 mph - N/A   Overcast
8:15 PM 28.2 °F 21.0 °F 23.0 °F 81% 30.12 in 10.0 mi WSW 6.9 mph - N/A   Overcast
8:35 PM 28.2 °F 21.0 °F 22.8 °F 80% 30.12 in 10.0 mi WSW 6.9 mph - N/A   Overcast
8:55 PM 28.4 °F 21.2 °F 22.8 °F 80% 30.12 in 10.0 mi WSW 6.9 mph - N/A   Overcast
9:10 PM 28.4 °F 19.7 °F 23.0 °F 80% 30.12 in 10.0 mi WSW 9.2 mph - N/A   Overcast
9:30 PM 28.4 °F 20.4 °F 23.5 °F 82% 30.12 in 10.0 mi WSW 8.1 mph - N/A   Overcast
9:50 PM 28.4 °F 20.4 °F 23.7 °F 83% 30.11 in 10.0 mi WSW 8.1 mph - N/A   Overcast
10:11 PM 28.4 °F 19.1 °F 23.0 °F 80% 30.11 in 10.0 mi WSW 10.4 mph 16.1 mph N/A   Overcast
10:31 PM 28.8 °F 20.9 °F 22.6 °F 78% 30.10 in 10.0 mi WSW 8.1 mph 17.3 mph N/A   Overcast
10:51 PM 28.8 °F 19.0 °F 22.6 °F 78% 30.10 in 10.0 mi WSW 11.5 mph - N/A   Overcast
11:11 PM 28.8 °F 19.5 °F 22.6 °F 78% 30.10 in 10.0 mi WSW 10.4 mph - N/A   Overcast
11:31 PM 28.8 °F 16.6 °F 22.3 °F 77% 30.10 in 10.0 mi WSW 17.3 mph 20.7 mph N/A   Overcast
11:51 PM 28.6 °F 17.7 °F 21.9 °F 76% 30.10 in 10.0 mi WSW 13.8 mph 21.9 mph N/A   Overcast